STARLINK-3873 (52467 NORAD) Tracking and Keplerian Element Data

This shows tracking and keplerian element data for the satellite.

Feedback or suggestion? Click here.




ElementValue
Catalog52467
NameSTARLINK-3873
Epoch Orbit130
Epoch Day167.08334491
Epoch Year2022
RAAN65.0074
Inclination53.2172
Eccentricity0.0001804
Argument of Perigee30.1843
Mean Anonmoly106.8016
Mean Motion15.73187942
Decay Rate0.00058556
L11 52467U 22049S 22167.08334491 .00058556 00000+0 41893-3 0 9997
L22 52467 53.2172 65.0074 0001804 30.1843 106.8016 15.73187942 1303

Live tracking and technical data element details for STARLINK-3873 (NORAD 52467). STARLINK-3873 can be tracked NOW for your location showing map with azimuth and elevation plus other details from your city location.

Track the satellite on the map from your city or location and see movement details for azimuth, elevation, latitude, longitude, range, height, and movement on the map or in text.







IsCatalogInMostPopularTable: catalog: 52467, numindb: 1
Update: records affected: 1



GetName: 52467 STARLINK-3873

Hit Count: updated at: Mon, 27 Jun 2022 06:31:25 GMT